Theta_e
299 298 297 297 298 298 298 299 300 300 300 301 301 301 302 303 303 304 303 304 306 310 311 312 311 310 312 327 325 321 319 318 319 316 317 319 319 320 320 321 322 322 324 325 327 328 329
299 298 297 298 298 298 299 300 300 300 300 301 301 301 302 303 304 304 304 309 311 313 313 310 311 310 317 325 320 325 325 322 320 319 321 320 320 321 321 321 322 323 323 324 326 328 328
298 298 298 298 298 299 299 300 299 301 301 301 301 302 303 304 305 304 307 310 314 314 311 308 309 313 324 326 322 323 323 323 322 321 322 321 321 321 321 320 322 322 322 323 324 326 326
298 298 298 298 299 299 300 300 300 301 302 301 301 303 304 305 305 305 310 311 315 314 310 308 307 318 330 319 322 321 323 323 321 321 320 319 320 321 321 322 323 321 322 321 324 325 326
298 298 298 299 299 300 300 301 301 301 302 300 301 303 304 306 306 305 310 312 314 313 312 311 319 326 329 317 318 322 323 323 322 321 319 318 320 319 321 322 324 323 321 322 323 325 326
298 298 298 299 300 300 301 302 301 302 302 301 302 304 306 307 306 309 309 316 318 316 322 321 324 327 325 323 321 321 322 323 323 321 318 318 320 320 321 323 321 323 322 322 323 324 325
298 298 298 299 300 301 301 302 302 303 302 304 304 305 306 307 307 309 310 321 327 329 328 327 325 324 323 321 320 321 322 323 323 319 320 320 320 322 322 323 323 323 324 325 324 324 327
298 298 298 299 299 300 302 303 304 304 304 305 305 305 307 309 308 313 314 323 319 320 324 323 322 322 322 322 322 322 323 323 325 323 323 324 322 323 324 324 323 323 323 324 324 325 325
298 298 299 299 299 301 302 303 304 305 305 306 306 306 307 310 309 315 320 317 318 320 325 324 323 322 323 321 322 322 324 324 325 325 326 325 325 324 323 322 321 321 321 322 322 324 325
298 299 299 299 300 301 303 304 304 306 306 307 306 307 308 312 314 319 321 317 318 320 328 324 322 323 321 321 321 323 323 325 324 325 325 325 325 323 323 322 322 323 323 322 322 323 324
298 299 299 300 301 302 303 304 305 307 307 308 307 307 309 315 315 323 320 319 318 322 335 323 323 323 322 324 323 322 323 323 324 325 324 325 324 324 323 323 323 323 326 325 325 324 323
298 299 299 300 300 302 304 306 306 307 308 310 308 307 312 318 321 322 321 319 320 324 325 322 323 324 324 324 323 325 324 323 325 326 326 324 326 325 325 325 325 325 325 326 326 326 326
298 299 299 300 301 303 306 308 308 308 309 310 310 309 314 319 325 321 321 321 327 324 322 322 321 322 326 325 325 324 324 323 326 328 326 327 326 325 325 324 325 325 326 327 328 329 328
298 298 299 300 301 304 307 308 307 308 310 310 311 312 317 318 320 321 323 324 324 323 320 322 321 322 322 324 324 324 325 324 326 327 328 329 331 328 326 325 326 327 328 329 331 331 330
297 298 299 300 301 303 306 307 307 308 310 309 312 318 321 324 320 321 325 325 322 323 322 320 320 319 322 322 324 324 325 333 332 329 330 332 336 328 327 326 326 326 328 329 330 329 328
297 298 298 299 300 302 306 307 306 307 311 309 311 320 323 320 320 323 326 325 323 323 322 320 321 322 322 323 322 321 324 330 330 327 328 329 331 329 328 327 325 326 326 328 330 333 333
297 297 298 299 300 302 305 306 305 307 310 311 316 324 323 321 320 324 327 324 321 322 321 321 323 323 323 323 322 321 323 330 328 327 326 326 328 329 327 327 327 329 335 334 332 332 336
297 297 297 298 299 301 304 306 306 304 307 311 319 324 320 318 323 326 326 325 316 322 320 321 323 325 324 324 323 321 320 329 324 324 324 327 333 334 327 325 323 324 325 325 324 331 339
297 297 297 298 299 300 303 306 307 305 300 305 321 321 320 319 322 325 325 323 321 320 321 322 323 323 325 325 325 324 322 327 322 322 327 329 330 329 324 324 325 324 326 330 327 334 331
297 297 297 297 298 299 302 305 308 308 305 305 320 321 322 321 321 324 326 323 320 319 320 322 325 325 325 325 324 325 323 328 323 320 323 322 324 325 323 324 323 326 330 331 330 328 327
298 297 297 297 297 298 301 304 308 309 309 308 321 321 320 322 322 321 322 323 323 322 319 320 321 322 324 325 324 324 325 324 323 325 320 323 325 325 324 324 324 324 324 324 323 323 326
300 298 298 297 297 298 299 301 303 308 309 313 317 318 317 319 319 320 315 319 320 321 321 321 321 323 323 323 326 326 325 325 325 322 321 325 328 326 324 321 320 320 320 320 319 319 319
301 300 299 297 297 298 299 300 300 305 309 313 313 314 317 318 319 320 321 320 320 319 319 318 317 320 322 321 318 320 321 321 322 323 324 324 326 326 326 322 321 323 321 321 321 321 320
301 300 300 298 297 298 298 299 299 298 299 307 311 310 315 319 319 320 318 317 317 317 318 317 315 316 316 315 315 316 316 316 316 316 321 321 323 323 324 322 326 321 322 322 322 321 323
301 301 301 298 298 298 298 298 298 298 298 303 309 311 314 318 318 319 318 316 315 316 314 315 315 314 313 313 314 314 315 315 316 316 318 323 322 322 325 324 322 321 321 322 323 323 322
301 302 301 299 298 298 298 298 297 298 298 302 309 309 310 314 317 313 314 314 315 316 316 315 313 311 311 310 311 313 316 318 319 320 320 322 323 322 320 323 323 321 321 327 330 326 334
301 302 302 300 299 298 298 297 297 298 298 299 306 306 307 313 314 313 313 312 313 313 314 314 314 311 311 311 312 314 315 315 317 318 321 321 323 321 319 320 320 319 319 327 331 335 329
301 302 302 300 300 299 299 298 298 298 297 299 307 306 305 310 311 311 310 310 311 310 312 314 312 311 311 312 312 313 314 315 316 317 319 321 325 325 322 322 321 326 326 326 330 326 323
302 301 302 301 300 299 299 298 297 297 296 296 304 306 304 304 309 305 306 307 307 308 309 311 311 312 311 312 312 313 314 314 318 318 319 321 321 324 326 324 328 324 326 329 328 325 323
Wind_Speed
9 9 9 10 10 11 11 12 13 15 16 17 18 19 20 20 21 22 20 18 14 13 13 13 12 10 2 7 7 7 4 4 8 8 13 12 12 13 15 17 17 18 18 19 20 19 4
8 9 9 11 12 13 13 14 15 17 18 19 19 21 22 21 23 22 19 13 13 10 8 8 8 5 3 10 5 7 8 9 9 12 14 14 12 12 15 16 16 15 17 20 20 15 13
8 9 10 11 12 14 15 17 19 19 19 20 22 22 22 22 24 21 13 13 8 7 6 5 6 4 9 12 1 6 10 10 8 11 9 9 14 11 9 13 16 17 17 11 17 16 16
9 9 10 11 14 15 16 18 20 20 21 23 24 23 23 23 23 18 11 11 6 6 4 2 5 3 8 4 1 8 11 6 5 5 8 11 8 11 16 15 12 13 15 14 18 18 16
9 10 10 12 14 16 17 19 21 22 23 25 26 24 23 23 21 14 11 10 5 3 1 2 3 7 8 5 10 10 9 6 5 5 6 8 9 12 15 13 11 12 12 19 18 19 17
9 10 12 13 14 16 18 19 22 23 24 26 27 26 23 22 18 11 12 8 6 5 5 6 14 9 10 5 9 8 11 9 5 5 5 7 7 10 13 12 13 10 18 13 15 15 14
10 11 13 14 15 17 19 20 23 23 27 27 28 26 24 18 10 11 9 5 5 6 9 10 7 10 6 6 4 8 11 11 11 6 11 11 10 12 14 17 19 10 15 14 8 8 3
10 11 13 14 16 18 19 22 24 25 28 27 28 26 23 15 6 9 9 6 7 8 8 8 2 8 4 4 7 10 11 8 9 11 12 10 12 15 12 6 10 10 14 14 15 7 2
9 11 13 15 17 19 21 22 25 26 28 28 28 27 20 11 6 9 7 6 8 9 6 10 4 1 3 9 8 13 13 13 11 11 13 9 11 4 3 7 10 12 13 14 14 14 10
9 11 13 15 17 19 21 23 26 27 29 29 28 25 16 9 7 4 6 7 8 5 5 12 10 6 8 9 6 7 12 14 9 12 14 9 13 5 5 9 11 11 14 15 12 13 10
8 10 13 15 18 20 22 24 27 27 29 29 28 23 10 7 13 7 9 9 7 3 5 6 6 6 12 7 9 11 7 12 12 16 5 14 7 5 11 13 10 11 8 8 10 11 14
8 11 13 16 18 20 23 25 28 29 31 29 28 19 9 6 10 6 8 7 4 5 3 8 5 8 13 14 8 6 6 10 12 13 11 14 7 5 9 11 3 12 9 9 12 12 12
8 10 13 15 18 20 24 27 30 31 31 31 26 13 8 9 8 10 11 6 6 8 2 6 6 6 6 5 9 7 9 8 11 7 9 10 13 12 8 11 11 11 9 9 11 11 14
8 9 12 15 18 21 25 28 32 33 31 33 24 11 7 11 11 11 11 8 8 5 2 5 3 3 7 6 7 6 6 11 10 7 11 9 15 9 6 5 12 10 13 9 15 13 8
8 9 12 15 18 21 24 28 32 34 32 32 23 10 8 10 7 8 7 8 8 10 5 3 7 9 9 5 6 4 9 11 4 8 6 9 15 11 10 6 10 14 12 13 11 17 13
8 9 11 13 16 20 23 26 31 34 32 24 18 13 16 1 4 8 7 14 10 4 6 4 11 5 9 11 6 8 9 5 2 5 10 13 11 8 7 5 11 14 14 10 7 8 13
8 9 10 12 15 19 21 24 29 33 32 17 6 5 6 3 5 6 9 8 4 10 5 3 8 5 9 5 4 12 1 8 4 5 9 13 8 14 15 8 10 5 4 11 4 5 7
8 8 9 11 13 16 19 21 26 32 36 16 7 5 6 2 6 8 12 11 1 1 2 5 5 9 8 4 6 8 6 10 5 4 8 8 5 9 17 22 18 16 7 11 7 5 3
10 9 9 10 11 14 17 18 21 26 29 14 5 9 5 4 6 8 5 5 2 3 8 4 4 5 2 5 3 10 7 11 7 5 6 10 3 8 11 13 10 10 12 16 5 5 11
11 9 8 9 11 12 16 17 18 21 24 12 5 4 5 5 6 7 11 5 7 1 10 3 10 3 6 8 9 5 6 8 7 5 7 4 5 9 12 19 17 15 4 14 14 7 12
13 11 9 7 9 11 15 17 17 20 22 6 4 2 4 5 6 8 6 9 10 6 7 3 7 10 9 9 12 12 12 5 9 12 4 3 8 13 16 20 21 21 20 16 18 16 15
14 13 10 7 7 10 13 16 17 18 21 4 4 4 7 10 6 8 4 8 11 12 1 6 9 11 6 6 9 12 13 8 4 8 6 7 8 9 14 17 19 22 22 22 20 20 21
16 13 11 8 6 7 10 13 15 16 15 7 12 10 4 8 7 7 9 9 9 5 5 4 9 9 10 4 8 9 7 8 9 7 9 8 8 9 16 16 17 18 17 21 22 20 20
18 15 13 10 7 5 7 10 12 12 11 8 9 10 5 8 10 9 7 3 5 5 9 3 1 7 7 8 10 11 12 14 15 15 12 11 11 9 12 14 19 14 15 17 21 20 12
19 16 14 12 9 6 5 8 9 8 7 8 9 8 6 8 11 15 10 6 9 6 6 8 9 8 6 7 6 8 11 13 20 20 19 14 12 10 12 14 18 22 15 15 13 15 10
21 19 16 14 10 7 4 6 7 7 7 7 8 5 6 6 5 10 12 7 7 9 9 10 8 10 3 4 9 13 7 10 8 13 19 16 15 11 11 15 17 14 18 11 20 14 10
22 19 17 15 11 8 5 4 5 6 6 7 6 4 6 7 10 9 5 6 8 6 8 9 7 4 5 5 10 12 15 15 16 18 7 12 13 17 13 13 12 14 19 7 4 4 11
23 20 18 15 13 9 6 5 4 5 5 7 4 3 6 6 11 9 8 8 8 4 6 3 4 5 6 8 9 11 10 12 15 17 17 15 9 12 15 18 19 11 14 9 5 6 4
25 22 19 17 14 11 7 5 3 3 3 4 8 3 5 8 8 15 11 9 11 12 6 6 8 6 2 4 4 5 10 11 14 13 11 12 12 7 3 8 7 7 7 11 14 4 4
Wind_Direction
36 29 27 26 19 15 13 12 8 0 357 354 347 342 337 332 327 322 318 312 310 304 296 289 280 281 325 235 245 143 168 190 176 182 221 234 241 247 234 244 238 237 249 254 263 281 294
34 29 27 24 16 13 12 10 7 359 357 352 346 341 337 333 327 324 322 319 314 302 303 293 266 238 248 250 82 161 151 159 178 205 217 226 233 246 269 259 262 245 239 254 263 269 266
31 28 27 22 15 17 13 11 5 1 356 351 345 340 338 333 328 327 325 323 317 317 313 293 228 172 257 263 281 177 176 193 218 231 268 246 255 280 258 278 257 270 273 261 243 263 266
30 27 23 18 16 15 14 10 5 359 353 351 345 341 337 334 330 328 323 321 311 313 305 240 173 220 276 155 229 188 195 211 211 245 283 295 262 271 266 278 274 251 248 259 253 232 244
29 27 23 19 15 11 10 7 4 357 353 349 346 342 339 336 330 323 317 318 306 280 257 245 194 216 253 164 215 205 207 196 205 230 245 273 250 245 242 246 260 230 247 233 249 235 215
26 24 21 15 12 9 5 3 0 355 352 348 345 343 341 336 329 315 318 317 273 271 272 253 266 254 237 227 160 198 209 255 212 222 208 218 221 230 234 233 240 231 213 226 260 244 179
20 18 16 12 8 5 2 360 356 354 352 349 345 343 339 336 323 306 325 305 213 203 234 266 145 255 146 113 158 215 196 215 208 214 236 194 221 225 232 217 254 334 301 312 256 217 297
15 14 13 9 6 3 360 358 355 352 352 348 344 341 338 333 291 297 305 267 30 331 296 202 246 236 293 296 207 192 184 216 218 235 210 218 230 255 259 357 336 310 280 281 297 311 52
10 11 10 7 4 2 359 355 353 350 349 348 343 340 335 327 272 279 257 350 322 325 263 189 194 293 176 201 221 172 192 219 237 244 260 262 284 70 354 296 259 268 268 277 265 286 182
7 6 6 4 3 0 357 355 353 350 349 346 342 338 333 324 300 342 248 335 324 352 272 153 199 148 150 204 222 149 189 232 233 256 265 254 267 43 267 251 267 259 253 234 275 288 268
353 358 0 1 0 358 356 354 353 348 346 345 342 338 323 320 307 294 331 322 329 263 261 151 123 113 155 217 127 183 223 232 264 279 250 270 218 261 247 247 256 253 355 334 288 270 265
348 352 355 357 358 357 354 353 353 349 347 344 342 332 305 263 267 309 323 321 269 234 240 148 165 203 187 209 183 124 208 235 288 287 281 272 309 281 298 319 330 299 310 258 265 260 258
335 344 352 354 355 355 353 352 352 349 346 341 339 318 274 282 296 327 318 268 248 252 123 154 204 220 236 143 183 196 176 209 250 245 242 274 262 230 217 269 238 219 249 264 253 229 239
326 340 347 351 353 355 353 352 350 347 345 339 337 298 265 259 283 310 299 257 262 330 90 31 325 211 250 174 226 226 223 227 208 289 306 287 250 296 294 240 295 328 244 259 280 301 337
316 332 343 348 352 352 353 353 350 346 345 337 336 287 249 238 285 291 276 240 261 340 40 294 192 267 207 217 284 255 230 75 44 339 336 327 347 206 220 274 300 293 263 341 309 276 274
309 331 338 343 346 351 356 355 351 346 344 341 331 288 249 189 275 275 259 259 299 30 346 276 275 228 275 182 183 229 256 82 124 10 338 305 313 280 211 240 266 255 293 293 284 338 302
302 319 328 337 344 348 354 356 354 349 346 348 301 252 111 272 246 253 249 256 199 90 334 273 282 297 269 327 256 298 24 102 40 3 333 308 305 297 305 266 330 323 9 334 308 298 306
279 297 318 330 337 344 348 355 359 355 350 360 295 270 119 266 247 231 242 341 66 98 210 272 290 308 303 320 291 283 294 65 55 359 304 11 338 300 295 307 311 300 265 270 291 276 113
267 284 306 321 327 337 344 350 359 0 1 336 290 294 153 240 255 256 174 209 321 248 269 257 248 260 282 275 251 258 293 100 45 23 31 352 268 281 278 256 285 283 323 329 280 323 275
256 268 287 310 323 331 341 347 355 355 350 341 278 284 182 210 277 290 320 252 194 161 307 314 300 340 269 249 255 264 254 145 112 73 58 347 279 278 281 302 311 300 102 297 270 280 289
247 253 266 291 321 333 340 345 352 350 341 326 251 12 27 305 54 338 342 309 302 181 206 240 265 249 259 262 266 246 225 217 172 152 187 235 267 275 276 284 292 291 289 287 284 280 274
237 241 248 265 307 335 346 346 354 354 340 255 325 353 354 293 281 286 262 269 263 264 193 235 231 287 262 267 287 305 349 330 306 142 190 223 260 281 280 281 282 283 285 284 279 276 277
231 235 236 249 278 323 340 345 358 4 3 321 9 316 281 298 270 255 256 264 252 302 313 322 326 311 269 13 351 330 333 322 316 317 289 268 252 274 271 280 282 270 264 266 268 269 269
233 228 230 233 250 293 326 342 354 10 13 327 352 309 282 280 278 273 298 316 281 277 273 291 153 290 29 339 311 277 269 269 265 254 247 255 256 258 267 277 267 265 273 279 272 270 301
231 225 224 223 231 258 306 331 340 352 354 337 318 303 289 276 278 283 276 243 280 257 246 268 289 65 14 313 294 267 252 253 248 242 232 219 238 258 251 253 268 273 270 279 278 267 264
225 221 221 218 220 235 275 312 330 338 341 335 325 317 282 296 251 355 318 310 287 268 254 230 215 87 28 276 257 246 253 279 255 221 213 208 207 234 251 258 260 276 267 340 356 239 72
220 217 215 214 214 222 248 282 309 325 333 327 299 346 271 278 280 301 274 314 324 265 275 310 156 169 170 241 249 252 255 252 256 264 192 203 213 218 231 248 270 285 300 97 87 281 72
214 210 212 209 208 215 222 242 281 309 320 327 316 259 283 281 286 316 291 275 267 263 275 38 260 182 224 243 264 259 262 260 265 262 265 258 221 229 229 239 251 4 318 298 62 102 121
210 206 207 206 207 206 209 231 250 284 311 299 269 206 261 258 278 315 293 274 285 300 312 290 279 303 300 286 245 298 283 282 269 265 262 258 263 272 142 267 339 333 347 356 343 315 207